| time (UTC) | temp C | wind direction | speed KPH | gust KPH | rain 1hr cm | rain 24hr cm | rain mn cm | humidity % | barometer mb |
| 20260505094504 | 15 | 210 | 4.8 | 16.1 | 0.00 | 0.00 | 0.00 | 79 | 1010.7 |
| 20260505094004 | 15 | 227 | 1.6 | 12.9 | 0.00 | 0.00 | 0.00 | 79 | 1010.7 |
| 20260505093503 | 15 | 176 | 1.6 | 14.5 | 0.00 | 0.00 | 0.00 | 79 | 1010.7 |
| 20260505093004 | 15 | 223 | 3.2 | 11.3 | 0.00 | 0.00 | 0.00 | 79 | 1010.7 |
| 20260505092503 | 15 | 222 | 3.2 | 4.8 | 0.00 | 0.00 | 0.00 | 79 | 1010.7 |
| 20260505092004 | 15 | 255 | 1.6 | 9.7 | 0.00 | 0.00 | 0.00 | 79 | 1010.8 |
| 20260505091504 | 15 | 221 | 1.6 | 4.8 | 0.00 | 0.00 | 0.00 | 79 | 1010.8 |
| 20260505091003 | 15 | 234 | 3.2 | 9.7 | 0.00 | 0.00 | 0.00 | 79 | 1010.8 |
| 20260505090504 | 15 | 184 | 3.2 | 4.8 | 0.00 | 0.00 | 0.00 | 79 | 1010.9 |
| 20260505090004 | 15 | 177 | 3.2 | 11.3 | 0.00 | 0.00 | 0.00 | 79 | 1010.9 |
| 20260505085504 | 15 | 212 | 1.6 | 4.8 | 0.00 | 0.00 | 0.00 | 79 | 1010.8 |
| 20260505085003 | 15 | 252 | 4.8 | 8.0 | 0.00 | 0.00 | 0.00 | 79 | 1010.8 |
| 20260505084503 | 15 | 205 | 4.8 | 9.7 | 0.00 | 0.00 | 0.00 | 80 | 1010.8 |
| 20260505084004 | 15 | 197 | 3.2 | 11.3 | 0.00 | 0.00 | 0.00 | 80 | 1010.7 |
| 20260505083504 | 15 | 190 | 1.6 | 4.8 | 0.00 | 0.00 | 0.00 | 80 | 1010.7 |
| 20260505083004 | 15 | 251 | 3.2 | 16.1 | 0.00 | 0.00 | 0.00 | 80 | 1010.7 |
| 20260505082503 | 15 | 269 | 1.6 | 11.3 | 0.00 | 0.00 | 0.00 | 81 | 1010.7 |
| 20260505082003 | 15 | 204 | 1.6 | 4.8 | 0.00 | 0.00 | 0.00 | 81 | 1010.7 |
| 20260505081504 | 15 | 259 | 1.6 | 11.3 | 0.00 | 0.00 | 0.00 | 81 | 1010.7 |
| 20260505081003 | 15 | 205 | 3.2 | 8.0 | 0.00 | 0.00 | 0.00 | 81 | 1010.8 |
| 20260505080503 | 14 | 208 | 3.2 | 11.3 | 0.00 | 0.00 | 0.00 | 82 | 1010.7 |
| 20260505080004 | 14 | 198 | 3.2 | 9.7 | 0.00 | 0.00 | 0.00 | 82 | 1010.8 |
| 20260505075504 | 14 | 236 | 3.2 | 8.0 | 0.00 | 0.00 | 0.00 | 82 | 1010.8 |
| 20260505075003 | 14 | 200 | 1.6 | 4.8 | 0.00 | 0.00 | 0.00 | 82 | 1010.8 |
| 20260505074504 | 14 | 182 | 1.6 | 11.3 | 0.00 | 0.00 | 0.00 | 82 | 1010.7 |
| 20260505074004 | 14 | 203 | 1.6 | 4.8 | 0.00 | 0.00 | 0.00 | 82 | 1010.7 |
| 20260505073503 | 14 | 192 | 1.6 | 9.7 | 0.00 | 0.00 | 0.00 | 82 | 1010.7 |
| 20260505073003 | 14 | 189 | 1.6 | 8.0 | 0.00 | 0.00 | 0.00 | 82 | 1010.8 |
| 20260505072504 | 14 | 198 | 4.8 | 8.0 | 0.00 | 0.00 | 0.00 | 82 | 1010.6 |
| 20260505072004 | 14 | 199 | 3.2 | 8.0 | 0.00 | 0.00 | 0.00 | 82 | 1010.7 |
| 20260505071503 | 14 | 205 | 3.2 | 4.8 | 0.00 | 0.00 | 0.00 | 82 | 1010.5 |
| 20260505071004 | 13 | 196 | 1.6 | 9.7 | 0.00 | 0.00 | 0.00 | 83 | 1010.6 |
| 20260505070503 | 13 | 191 | 1.6 | 4.8 | 0.00 | 0.00 | 0.00 | 84 | 1010.6 |
| 20260505070004 | 13 | 193 | 1.6 | 4.8 | 0.00 | 0.00 | 0.00 | 84 | 1010.7 |
| 20260505065503 | 13 | 182 | 1.6 | 8.0 | 0.00 | 0.00 | 0.00 | 86 | 1010.7 |
| 20260505065003 | 13 | 213 | 3.2 | 11.3 | 0.00 | 0.00 | 0.00 | 86 | 1010.7 |
| 20260505064504 | 13 | 217 | 1.6 | 4.8 | 0.00 | 0.00 | 0.00 | 87 | 1010.6 |
| 20260505064003 | 12 | 224 | 0.0 | 1.6 | 0.00 | 0.00 | 0.00 | 87 | 1010.7 |
| 20260505063504 | 12 | 224 | 1.6 | 3.2 | 0.00 | 0.00 | 0.00 | 88 | 1010.6 |
| 20260505063004 | 12 | 163 | 3.2 | 8.0 | 0.00 | 0.00 | 0.00 | 88 | 1010.8 |
| 20260505062503 | 12 | 220 | 1.6 | 4.8 | 0.00 | 0.00 | 0.00 | 88 | 1010.8 |
| 20260505062004 | 12 | 189 | 0.0 | 1.6 | 0.00 | 0.00 | 0.00 | 88 | 1010.8 |
| 20260505061503 | 12 | 189 | 0.0 | 1.6 | 0.00 | 0.00 | 0.00 | 87 | 1010.8 |
| 20260505061004 | 12 | 189 | 0.0 | 3.2 | 0.00 | 0.00 | 0.00 | 87 | 1010.9 |
| 20260505060503 | 12 | 189 | 0.0 | 3.2 | 0.00 | 0.00 | 0.00 | 87 | 1011.0 |
| 20260505060004 | 13 | 189 | 0.0 | 3.2 | 0.00 | 0.00 | 0.00 | 87 | 1011.0 |
| 20260505055504 | 13 | 189 | 0.0 | 1.6 | 0.00 | 0.00 | 0.00 | 87 | 1011.0 |
| 20260505055003 | 13 | 189 | 0.0 | 3.2 | 0.00 | 0.00 | 0.00 | 87 | 1011.1 |
| 20260505054503 | 13 | 189 | 0.0 | 1.6 | 0.00 | 0.00 | 0.00 | 87 | 1010.9 |
| 20260505054004 | 13 | 189 | 1.6 | 4.8 | 0.00 | 0.00 | 0.00 | 86 | 1010.9 |
| 20260505053503 | 13 | 160 | 0.0 | 3.2 | 0.00 | 0.00 | 0.00 | 86 | 1010.8 |
| 20260505053004 | 13 | 132 | 0.0 | 4.8 | 0.00 | 0.00 | 0.00 | 86 | 1010.9 |
| 20260505052503 | 13 | 143 | 1.6 | 4.8 | 0.00 | 0.00 | 0.00 | 85 | 1011.0 |
| 20260505052004 | 13 | 153 | 1.6 | 8.0 | 0.00 | 0.00 | 0.00 | 84 | 1011.0 |
| 20260505051504 | 13 | 153 | 0.0 | 4.8 | 0.00 | 0.00 | 0.00 | 83 | 1011.0 |
| 20260505051003 | 13 | 141 | 3.2 | 8.0 | 0.00 | 0.00 | 0.00 | 83 | 1011.1 |
| 20260505050504 | 14 | 152 | 1.6 | 4.8 | 0.00 | 0.00 | 0.00 | 82 | 1011.2 |
| 20260505041503 | 15 | 145 | 1.6 | 8.0 | 0.00 | 0.00 | 0.00 | 77 | 1011.3 |
| 20260505041004 | 14 | 151 | 3.2 | 9.7 | 0.00 | 0.00 | 0.00 | 78 | 1011.3 |
| 20260505040503 | 14 | 170 | 3.2 | 8.0 | 0.00 | 0.00 | 0.00 | 79 | 1011.3 |
| 20260505040005 | 14 | 161 | 3.2 | 4.8 | 0.00 | 0.00 | 0.00 | 79 | 1011.3 |
| 20260505035504 | 14 | 167 | 3.2 | 4.8 | 0.00 | 0.00 | 0.00 | 79 | 1011.4 |
| 20260505035004 | 15 | 190 | 1.6 | 4.8 | 0.00 | 0.00 | 0.00 | 77 | 1011.4 |
| 20260505034504 | 15 | 155 | 1.6 | 4.8 | 0.00 | 0.00 | 0.00 | 75 | 1011.4 |
| 20260505034003 | 15 | 142 | 3.2 | 8.0 | 0.00 | 0.00 | 0.00 | 74 | 1011.3 |
| 20260505033503 | 15 | 180 | 1.6 | 4.8 | 0.00 | 0.00 | 0.00 | 74 | 1011.3 |
| 20260505033004 | 15 | 178 | 1.6 | 4.8 | 0.00 | 0.00 | 0.00 | 74 | 1011.5 |
| 20260505032503 | 15 | 165 | 1.6 | 4.8 | 0.00 | 0.00 | 0.00 | 74 | 1011.5 |
| 20260505032003 | 15 | 173 | 1.6 | 4.8 | 0.00 | 0.00 | 0.00 | 73 | 1011.5 |
| 20260505031504 | 15 | 157 | 1.6 | 3.2 | 0.00 | 0.00 | 0.00 | 72 | 1011.5 |
| 20260505031004 | 15 | 157 | 1.6 | 3.2 | 0.00 | 0.00 | 0.00 | 70 | 1011.5 |
| 20260505030503 | 15 | 199 | 1.6 | 11.3 | 0.00 | 0.00 | 0.00 | 69 | 1011.5 |
| 20260505030004 | 15 | 132 | 1.6 | 8.0 | 0.00 | 0.00 | 0.00 | 68 | 1011.5 |
| 20260505025503 | 15 | 184 | 1.6 | 8.0 | 0.00 | 0.00 | 0.00 | 68 | 1011.5 |
| 20260505025004 | 15 | 181 | 4.8 | 12.9 | 0.00 | 0.00 | 0.00 | 68 | 1011.5 |
| 20260505024504 | 16 | 190 | 1.6 | 4.8 | 0.00 | 0.00 | 0.00 | 67 | 1011.6 |
| 20260505024003 | 16 | 158 | 3.2 | 8.0 | 0.00 | 0.00 | 0.00 | 67 | 1011.6 |
| 20260505023504 | 16 | 143 | 3.2 | 8.0 | 0.00 | 0.00 | 0.00 | 67 | 1011.6 |
| 20260505023003 | 16 | 163 | 4.8 | 12.9 | 0.00 | 0.00 | 0.00 | 67 | 1011.7 |
| 20260505022504 | 16 | 172 | 3.2 | 8.0 | 0.00 | 0.00 | 0.00 | 67 | 1011.7 |
| 20260505022003 | 16 | 192 | 4.8 | 11.3 | 0.00 | 0.00 | 0.00 | 67 | 1011.6 |
| 20260505021503 | 16 | 186 | 3.2 | 9.7 | 0.00 | 0.00 | 0.00 | 67 | 1011.7 |
| 20260505021004 | 16 | 182 | 3.2 | 8.0 | 0.00 | 0.00 | 0.00 | 67 | 1011.7 |
| 20260505020504 | 16 | 155 | 1.6 | 14.5 | 0.00 | 0.00 | 0.00 | 67 | 1011.7 |
| 20260505020003 | 15 | 185 | 6.4 | 12.9 | 0.00 | 0.00 | 0.00 | 68 | 1011.7 |
| 20260505015504 | 15 | 161 | 3.2 | 9.7 | 0.00 | 0.00 | 0.00 | 68 | 1011.6 |
| 20260505015003 | 15 | 168 | 1.6 | 9.7 | 0.00 | 0.00 | 0.00 | 68 | 1011.6 |
| 20260505014503 | 15 | 183 | 3.2 | 9.7 | 0.00 | 0.00 | 0.00 | 69 | 1011.6 |
| 20260505014003 | 15 | 149 | 1.6 | 9.7 | 0.00 | 0.00 | 0.00 | 70 | 1011.6 |
| 20260505013503 | 15 | 188 | 3.2 | 12.9 | 0.00 | 0.00 | 0.00 | 70 | 1011.6 |
| 20260505013004 | 15 | 178 | 1.6 | 4.8 | 0.00 | 0.00 | 0.00 | 70 | 1011.6 |
| 20260505012503 | 15 | 174 | 3.2 | 4.8 | 0.00 | 0.00 | 0.00 | 70 | 1011.6 |
| 20260505012003 | 15 | 145 | 3.2 | 4.8 | 0.00 | 0.00 | 0.00 | 70 | 1011.6 |
| 20260505011504 | 15 | 179 | 3.2 | 8.0 | 0.00 | 0.00 | 0.00 | 70 | 1011.5 |
| 20260505011004 | 15 | 156 | 1.6 | 8.0 | 0.00 | 0.00 | 0.00 | 70 | 1011.5 |
| 20260505010503 | 15 | 132 | 1.6 | 9.7 | 0.00 | 0.00 | 0.00 | 70 | 1011.4 |
| 20260505010003 | 15 | 173 | 1.6 | 8.0 | 0.00 | 0.00 | 0.00 | 71 | 1011.4 |
| 20260505005504 | 15 | 169 | 1.6 | 8.0 | 0.00 | 0.00 | 0.00 | 71 | 1011.4 |
| 20260505005004 | 15 | 177 | 4.8 | 11.3 | 0.00 | 0.00 | 0.00 | 72 | 1011.2 |
| 20260505004504 | 15 | 182 | 1.6 | 4.8 | 0.00 | 0.00 | 0.00 | 72 | 1011.6 |
| 20260505004003 | 15 | 140 | 3.2 | 8.0 | 0.00 | 0.00 | 0.00 | 73 | 1011.2 |
| 20260505003503 | 15 | 161 | 3.2 | 8.0 | 0.00 | 0.00 | 0.00 | 73 | 1011.1 |
| 20260505003003 | 15 | 163 | 3.2 | 9.7 | 0.00 | 0.00 | 0.00 | 73 | 1011.2 |
| 20260505002504 | 15 | 179 | 4.8 | 12.9 | 0.00 | 0.00 | 0.00 | 73 | 1011.1 |
| 20260505002004 | 15 | 176 | 3.2 | 9.7 | 0.00 | 0.00 | 0.00 | 74 | 1010.9 |
| 20260505001503 | 15 | 152 | 3.2 | 8.0 | 0.00 | 0.00 | 0.00 | 74 | 1010.8 |
| 20260505001004 | 15 | 164 | 3.2 | 9.7 | 0.00 | 0.00 | 0.00 | 74 | 1010.7 |
| 20260505000504 | 16 | 171 | 3.2 | 4.8 | 0.00 | 0.00 | 0.00 | 74 | 1010.6 |
| 20260505000003 | 16 | 162 | 3.2 | 4.8 | 0.00 | 0.00 | 0.00 | 72 | 1010.6 |
| 20260504235504 | 16 | 160 | 4.8 | 14.5 | 0.00 | 0.00 | 0.00 | 71 | 1010.6 |
| 20260504235003 | 16 | 142 | 8.0 | 16.1 | 0.00 | 0.00 | 0.00 | 69 | 1010.5 |
| 20260504234503 | 17 | 170 | 4.8 | 12.9 | 0.00 | 0.00 | 0.00 | 68 | 1010.4 |
| 20260504234004 | 17 | 142 | 4.8 | 14.5 | 0.00 | 0.00 | 0.00 | 66 | 1010.4 |
| 20260504233503 | 17 | 150 | 4.8 | 9.7 | 0.00 | 0.00 | 0.00 | 62 | 1010.2 |
| 20260504233003 | 17 | 158 | 8.0 | 12.9 | 0.00 | 0.00 | 0.00 | 62 | 1010.2 |
| 20260504232503 | 17 | 169 | 3.2 | 12.9 | 0.00 | 0.00 | 0.00 | 61 | 1010.2 |
| 20260504232003 | 17 | 153 | 4.8 | 12.9 | 0.00 | 0.00 | 0.00 | 60 | 1010.1 |
| 20260504231503 | 18 | 169 | 8.0 | 14.5 | 0.00 | 0.00 | 0.00 | 60 | 1010.1 |
| 20260504231004 | 18 | 155 | 4.8 | 14.5 | 0.00 | 0.00 | 0.00 | 60 | 1010.0 |
| 20260504230504 | 18 | 166 | 8.0 | 14.5 | 0.00 | 0.00 | 0.00 | 61 | 1010.0 |
| 20260504230004 | 18 | 176 | 4.8 | 14.5 | 0.00 | 0.00 | 0.00 | 62 | 1010.1 |
| 20260504225503 | 18 | 139 | 8.0 | 12.9 | 0.00 | 0.00 | 0.00 | 60 | 1010.1 |
| 20260504225004 | 18 | 192 | 6.4 | 16.1 | 0.00 | 0.00 | 0.00 | 59 | 1010.1 |
| 20260504224504 | 18 | 161 | 8.0 | 14.5 | 0.00 | 0.00 | 0.00 | 60 | 1010.1 |
| 20260504224004 | 18 | 182 | 6.4 | 16.1 | 0.00 | 0.00 | 0.00 | 60 | 1010.0 |
| 20260504223504 | 18 | 145 | 6.4 | 14.5 | 0.00 | 0.00 | 0.00 | 61 | 1010.0 |
| 20260504223003 | 18 | 175 | 8.0 | 16.1 | 0.00 | 0.00 | 0.00 | 61 | 1009.9 |
| 20260504222504 | 18 | 161 | 8.0 | 14.5 | 0.00 | 0.00 | 0.00 | 61 | 1009.9 |
| 20260504222004 | 18 | 139 | 6.4 | 12.9 | 0.00 | 0.00 | 0.00 | 62 | 1010.0 |
| 20260504221503 | 18 | 152 | 8.0 | 12.9 | 0.00 | 0.00 | 0.00 | 62 | 1010.0 |
| 20260504221004 | 18 | 159 | 6.4 | 16.1 | 0.00 | 0.00 | 0.00 | 62 | 1010.0 |
| 20260504220504 | 18 | 144 | 8.0 | 19.3 | 0.00 | 0.00 | 0.00 | 62 | 1010.0 |
| 20260504220004 | 18 | 179 | 8.0 | 16.1 | 0.00 | 0.00 | 0.00 | 62 | 1010.0 |
| 20260504215503 | 19 | 162 | 9.7 | 19.3 | 0.00 | 0.00 | 0.00 | 61 | 1010.0 |
| 20260504215004 | 19 | 150 | 9.7 | 20.9 | 0.00 | 0.00 | 0.00 | 61 | 1010.1 |
| 20260504214503 | 19 | 151 | 9.7 | 22.5 | 0.00 | 0.00 | 0.00 | 60 | 1010.1 |
| 20260504214004 | 18 | 151 | 11.3 | 22.5 | 0.00 | 0.00 | 0.00 | 61 | 1010.2 |
| 20260504213504 | 18 | 162 | 8.0 | 16.1 | 0.00 | 0.00 | 0.00 | 62 | 1010.1 |
| 20260504213004 | 18 | 177 | 8.0 | 16.1 | 0.00 | 0.00 | 0.00 | 61 | 1010.0 |
| 20260504212503 | 18 | 166 | 8.0 | 16.1 | 0.00 | 0.00 | 0.00 | 62 | 1010.1 |
| 20260504212004 | 18 | 169 | 8.0 | 19.3 | 0.00 | 0.00 | 0.00 | 62 | 1010.0 |
| 20260504211504 | 18 | 149 | 11.3 | 24.1 | 0.00 | 0.00 | 0.00 | 63 | 1010.0 |
| 20260504211004 | 18 | 157 | 8.0 | 20.9 | 0.00 | 0.00 | 0.00 | 65 | 1010.1 |
| 20260504210504 | 18 | 137 | 6.4 | 20.9 | 0.00 | 0.00 | 0.00 | 65 | 1010.0 |
| 20260504210004 | 18 | 176 | 9.7 | 29.0 | 0.00 | 0.00 | 0.00 | 65 | 1009.9 |
| 20260504205504 | 18 | 147 | 9.7 | 29.0 | 0.00 | 0.00 | 0.00 | 65 | 1009.9 |
| 20260504205003 | 18 | 150 | 14.5 | 25.7 | 0.00 | 0.00 | 0.00 | 66 | 1009.9 |
| 20260504204503 | 18 | 140 | 12.9 | 27.4 | 0.00 | 0.00 | 0.00 | 65 | 1010.0 |
| 20260504204004 | 18 | 164 | 11.3 | 24.1 | 0.00 | 0.00 | 0.00 | 63 | 1010.0 |
| 20260504203504 | 18 | 141 | 9.7 | 32.2 | 0.00 | 0.00 | 0.00 | 64 | 1009.9 |
| 20260504203004 | 18 | 157 | 11.3 | 24.1 | 0.00 | 0.00 | 0.00 | 64 | 1010.0 |
| 20260504202503 | 18 | 161 | 9.7 | 22.5 | 0.00 | 0.00 | 0.00 | 64 | 1010.0 |
| 20260504202004 | 18 | 145 | 14.5 | 27.4 | 0.00 | 0.00 | 0.00 | 63 | 1010.0 |
| 20260504201503 | 18 | 162 | 12.9 | 32.2 | 0.00 | 0.00 | 0.00 | 62 | 1010.0 |
| 20260504201004 | 18 | 159 | 8.0 | 25.7 | 0.00 | 0.00 | 0.00 | 60 | 1010.3 |
| 20260504200504 | 19 | 173 | 9.7 | 27.4 | 0.00 | 0.00 | 0.00 | 61 | 1010.1 |
| 20260504200003 | 18 | 165 | 11.3 | 24.1 | 0.00 | 0.00 | 0.00 | 60 | 1010.3 |
| 20260504195503 | 18 | 171 | 8.0 | 19.3 | 0.00 | 0.00 | 0.00 | 61 | 1010.2 |
| 20260504195004 | 19 | 169 | 14.5 | 32.2 | 0.00 | 0.00 | 0.00 | 61 | 1010.3 |
| 20260504194503 | 19 | 157 | 11.3 | 19.3 | 0.00 | 0.00 | 0.00 | 60 | 1010.3 |
| 20260504194003 | 19 | 156 | 11.3 | 24.1 | 0.00 | 0.00 | 0.00 | 59 | 1010.5 |
| 20260504193504 | 20 | 157 | 9.7 | 22.5 | 0.00 | 0.00 | 0.00 | 58 | 1010.4 |
| 20260504193004 | 20 | 140 | 11.3 | 33.8 | 0.00 | 0.00 | 0.00 | 58 | 1010.5 |
| 20260504192504 | 20 | 166 | 9.7 | 22.5 | 0.00 | 0.00 | 0.00 | 58 | 1010.5 |
| 20260504192004 | 20 | 158 | 9.7 | 19.3 | 0.00 | 0.00 | 0.00 | 61 | 1010.7 |
| 20260504191503 | 20 | 165 | 9.7 | 29.0 | 0.00 | 0.00 | 0.00 | 59 | 1010.6 |
| 20260504191004 | 20 | 159 | 12.9 | 24.1 | 0.00 | 0.00 | 0.00 | 60 | 1010.8 |
| 20260504190504 | 20 | 167 | 8.0 | 20.9 | 0.00 | 0.00 | 0.00 | 59 | 1010.8 |
| 20260504190004 | 20 | 191 | 8.0 | 19.3 | 0.00 | 0.00 | 0.00 | 58 | 1010.8 |
| 20260504185503 | 20 | 142 | 6.4 | 20.9 | 0.00 | 0.00 | 0.00 | 58 | 1010.8 |
| 20260504185004 | 21 | 150 | 8.0 | 22.5 | 0.00 | 0.00 | 0.00 | 58 | 1010.9 |
| 20260504184504 | 20 | 161 | 9.7 | 19.3 | 0.00 | 0.00 | 0.00 | 58 | 1011.0 |
| 20260504184004 | 20 | 175 | 8.0 | 24.1 | 0.00 | 0.00 | 0.00 | 57 | 1011.1 |
| 20260504183503 | 21 | 206 | 4.8 | 12.9 | 0.00 | 0.00 | 0.00 | 56 | 1011.3 |
| 20260504183003 | 21 | 138 | 8.0 | 22.5 | 0.00 | 0.00 | 0.00 | 53 | 1011.3 |
| 20260504182504 | 23 | 133 | 6.4 | 24.1 | 0.00 | 0.00 | 0.00 | 46 | 1011.4 |
| 20260504182004 | 22 | 186 | 4.8 | 20.9 | 0.00 | 0.00 | 0.00 | 44 | 1011.5 |
| 20260504181504 | 23 | 157 | 8.0 | 14.5 | 0.00 | 0.00 | 0.00 | 43 | 1011.5 |
| 20260504181003 | 23 | 221 | 8.0 | 19.3 | 0.00 | 0.00 | 0.00 | 33 | 1011.5 |
| 20260504180504 | 23 | 171 | 9.7 | 19.3 | 0.00 | 0.00 | 0.00 | 34 | 1011.5 |
| 20260504180003 | 23 | 166 | 11.3 | 20.9 | 0.00 | 0.00 | 0.00 | 33 | 1011.6 |
| 20260504175504 | 23 | 230 | 8.0 | 24.1 | 0.00 | 0.00 | 0.00 | 33 | 1011.6 |
| 20260504175003 | 23 | 226 | 9.7 | 20.9 | 0.00 | 0.00 | 0.00 | 32 | 1011.5 |
| 20260504174503 | 22 | 294 | 4.8 | 20.9 | 0.00 | 0.00 | 0.00 | 34 | 1011.7 |
| 20260504174003 | 23 | 217 | 6.4 | 20.9 | 0.00 | 0.00 | 0.00 | 33 | 1011.6 |
| 20260504173503 | 23 | 231 | 4.8 | 19.3 | 0.00 | 0.00 | 0.00 | 33 | 1011.7 |
| 20260504173004 | 22 | 274 | 4.8 | 20.9 | 0.00 | 0.00 | 0.00 | 34 | 1011.7 |
| 20260504172503 | 23 | 222 | 4.8 | 19.3 | 0.00 | 0.00 | 0.00 | 35 | 1011.8 |
| 20260504172004 | 23 | 214 | 4.8 | 20.9 | 0.00 | 0.00 | 0.00 | 33 | 1011.8 |
| 20260504171503 | 23 | 285 | 8.0 | 12.9 | 0.00 | 0.00 | 0.00 | 33 | 1011.9 |
| 20260504171004 | 23 | 241 | 3.2 | 12.9 | 0.00 | 0.00 | 0.00 | 34 | 1011.9 |
| 20260504170503 | 22 | 273 | 6.4 | 19.3 | 0.00 | 0.00 | 0.00 | 34 | 1012.0 |
| 20260504151004 | 20 | 189 | 8.0 | 24.1 | 0.00 | 0.00 | 0.00 | 42 | 1013.2 |
| 20260504150504 | 20 | 148 | 3.2 | 22.5 | 0.00 | 0.00 | 0.00 | 42 | 1013.3 |
| 20260504141003 | 18 | 207 | 4.8 | 19.3 | 0.00 | 0.00 | 0.00 | 41 | 1013.7 |
| 20260504140504 | 18 | 199 | 11.3 | 25.7 | 0.00 | 0.00 | 0.00 | 39 | 1013.6 |
| 20260504130504 | 16 | 233 | 4.8 | 12.9 | 0.00 | 0.00 | 0.00 | 50 | 1014.3 |
| 20260504110503 | 10 | 159 | 3.2 | 8.0 | 0.00 | 0.00 | 0.00 | 71 | 1015.3 |
| 20260504100503 | 9 | 267 | 3.2 | 8.0 | 0.00 | 0.00 | 0.00 | 69 | 1015.0 |